This is the latest recevied weather packets stored in our database for station/object OK0BPL-5. If no packets are shown the sender has not sent any weather packets the latest 10 day(s).
| Time | Temp. | Humidity | Pressure | Rain* | Wind** | Luminosity | Snow |
|---|---|---|---|---|---|---|---|
| 1787684732 | 20° C | 61% | 1040.3 hPa | 0 mm | - | 0 W/m² | - |
| 1787684732 | 20° C | 61% | 1040.3 hPa | 0 mm | - | 0 W/m² | - |
| 1787683832 | 20° C | 59% | 1040 hPa | 0 mm | - | 0 W/m² | - |
| 1787683832 | 20° C | 59% | 1040 hPa | 0 mm | - | 0 W/m² | - |
| 1787682932 | 20.56° C | 57% | 1039.9 hPa | 0 mm | - | 0 W/m² | - |
| 1787682932 | 20.56° C | 57% | 1039.9 hPa | 0 mm | - | 0 W/m² | - |
| 1787682032 | 20.56° C | 55% | 1039.5 hPa | 0 mm | - | 0 W/m² | - |
| 1787681132 | 21.11° C | 55% | 1039.3 hPa | 0 mm | - | 0 W/m² | - |
| 1787681132 | 21.11° C | 55% | 1039.3 hPa | 0 mm | - | 0 W/m² | - |
| 1787680232 | 21.11° C | 54% | 1039.3 hPa | 0 mm | - | 1 W/m² | - |
| 1787680232 | 21.11° C | 54% | 1039.3 hPa | 0 mm | - | 1 W/m² | - |
| 1787679332 | 21.11° C | 53% | 1039 hPa | 0 mm | - | 4 W/m² | - |
| 1787679332 | 21.11° C | 53% | 1039 hPa | 0 mm | - | 4 W/m² | - |
| 1787678432 | 21.67° C | 53% | 1039 hPa | 0 mm | - | 5 W/m² | - |
| 1787678432 | 21.67° C | 53% | 1039 hPa | 0 mm | - | 5 W/m² | - |
| 1787677532 | 21.67° C | 52% | 1038.8 hPa | 0 mm | - | 9 W/m² | - |
| 1787677532 | 21.67° C | 52% | 1038.8 hPa | 0 mm | - | 9 W/m² | - |
| 1787676632 | 21.67° C | 52% | 1038.6 hPa | 0 mm | - | 13 W/m² | - |
| 1787676632 | 21.67° C | 52% | 1038.6 hPa | 0 mm | - | 13 W/m² | - |
| 1787675732 | 22.22° C | 50% | 1038.4 hPa | 0 mm | - | 13 W/m² | - |
| 1787674832 | 22.78° C | 49% | 1038.2 hPa | 0 mm | - | 24 W/m² | - |
| 1787674832 | 22.78° C | 49% | 1038.2 hPa | 0 mm | - | 24 W/m² | - |
| 1787673932 | 23.33° C | 47% | 1037.9 hPa | 0 mm | - | 42 W/m² | - |
| 1787673932 | 23.33° C | 47% | 1037.9 hPa | 0 mm | - | 42 W/m² | - |
| 1787673032 | 23.89° C | 45% | 1037.7 hPa | 0 mm | - | 54 W/m² | - |
* Rain latest hour (hover to see other rain measurements)
** Current wind speed in m/s (hover to see current wind gust speed)